Location: Buckland
(65.9785°N, 161.1281°W)
Time: 22:10:48
(UTC+00:00)

SPROUT - Pass Details

Date: 24 January 2021
Orbit: 597 x 610 km, 97.9° (Epoch: 07 March)

Event Time Altitude Azimuth Distance (km) Brightness Sun altitude
Exits shadow 06:41:29 11° 5° (N) 1,905 ? -28.0°
Drops below altitude 10° 06:42:07 10° 356° (N) 1,979 ? -28.1°
Sets 06:45:42 0° 325° (NW) 2,889 ? -28.4°
